Weather History for Langdon, ND

Change the Weather History Date:

Saturday, January 12, 2013

  Actual Average (KDVL) Record (KDVL)
Temperature  
Mean Temperature -6 °F -  
Max Temperature 0 °F 12 °F 45 °F (1986)
Min Temperature -13 °F -4 °F -28 °F (1971)
Degree Days  
Heating Degree Days 70    
Moisture  
Dew Point -10 °F    
Average Humidity 79    
Maximum Humidity 92    
Minimum Humidity 71    
Precipitation  
Precipitation 4.31 in - - ()
Sea Level Pressure  
Sea Level Pressure 29.89 in    
Wind  
Wind Speed 27 mph (NNW)    
Max Wind Speed 38 mph    
Max Gust Speed 48 mph    
Visibility 5 miles    
Events Rain , Snow    
Averages and records for this station are not official NWS values.
T = Trace of Precipitation, MM = Missing Value Source: NWS Daily Summary

Daily Weather History Graph

Daily Weather History Graph

Search for Another Location

Airport:

Trip Planner

Search our weather history database for the weather conditions in past years. The results will help you decide how hot, cold, wet, or windy it might be!

Date:

Astronomy

Jan. 12, 2013 Rise Set
Actual Time 8:23 AM CST 5:01 PM CST
Civil Twilight 7:47 AM CST 5:37 PM CST
Nautical Twilight 7:07 AM CST 6:16 PM CST
Astronomical Twilight 6:29 AM CST 6:54 PM CST
Moon 8:34 AM CST (1/12) 6:42 PM CST (1/12)
Length of Visible Light 9h 50m
Length of Day
8h 38m
New Moon, 1% of the Moon is Illuminated
Jan 12
New Moon
Jan 18
First Quarter
Jan 26
Full
Feb 3
Last Quarter
Feb 10
New

Hourly Weather History & Observations

Time (CST) Temp. Windchill Dew Point Humidity Pressure Visibility Wind Dir Wind Speed Gust Speed Precip Events Conditions
12:15 AM -0.4 °F -28.5 °F -2.2 °F 92% 29.58 in 0.2 mi North 36.8 mph 46.0 mph 0.32 in Snow Heavy Snow
12:35 AM -0.4 °F -28.8 °F -4.0 °F 85% 29.58 in 0.2 mi North 38.0 mph 42.6 mph 0.79 in Snow Heavy Snow
12:55 AM -0.4 °F -28.5 °F -4.0 °F 85% 29.59 in 0.2 mi North 36.8 mph 42.6 mph 1.22 in Snow Heavy Snow
1:15 AM -0.4 °F -27.8 °F -4.0 °F 85% 29.60 in 0.2 mi North 34.5 mph 41.4 mph 0.23 in Snow Heavy Snow
1:35 AM -0.4 °F -28.5 °F -4.0 °F 85% 29.61 in 0.2 mi North 36.8 mph 43.7 mph 0.58 in Snow Heavy Snow
1:55 AM -0.4 °F -27.5 °F -4.0 °F 85% 29.62 in 0.5 mi North 33.4 mph 48.3 mph 0.82 in Snow Snow
2:15 AM -0.4 °F -27.5 °F -4.0 °F 85% 29.63 in 0.2 mi North 33.4 mph 43.7 mph 0.14 in Snow Heavy Snow
2:35 AM -0.4 °F -27.5 °F -4.0 °F 85% 29.64 in 0.2 mi North 33.4 mph 42.6 mph 0.45 in Snow Heavy Snow
2:55 AM -2.2 °F -28.8 °F -5.8 °F 85% 29.66 in 0.5 mi North 29.9 mph 36.8 mph 0.68 in Snow Snow
3:35 AM -2.2 °F -29.9 °F -7.6 °F 78% 29.67 in 0.5 mi North 33.4 mph 42.6 mph 0.32 in Rain Light Freezing Rain
3:55 AM -2.2 °F -30.6 °F -7.6 °F 78% 29.68 in 0.5 mi North 35.7 mph 41.4 mph 0.48 in Rain Light Freezing Rain
4:15 AM -2.2 °F -28.8 °F -7.6 °F 78% 29.70 in 0.5 mi North 29.9 mph 39.1 mph 0.05 in Snow Snow
4:35 AM -2.2 °F -29.6 °F -7.6 °F 78% 29.70 in 0.5 mi North 32.2 mph 38.0 mph 0.17 in Rain Light Freezing Rain
4:55 AM -4.0 °F -30.0 °F -7.6 °F 85% 29.72 in 0.5 mi North 26.5 mph 38.0 mph 0.26 in Rain Light Freezing Rain
5:15 AM -4.0 °F -31.6 °F -7.6 °F 85% 29.73 in 0.2 mi North 31.1 mph 39.1 mph 0.09 in Rain Light Freezing Rain
5:35 AM -4.0 °F -29.6 °F -7.6 °F 85% 29.74 in 0.5 mi NNW 25.3 mph 41.4 mph 0.21 in Rain Light Freezing Rain
5:55 AM -4.0 °F -32.0 °F -7.6 °F 85% 29.74 in 0.5 mi North 32.2 mph 38.0 mph 0.31 in Rain Light Freezing Rain
6:15 AM -4.0 °F -30.4 °F -7.6 °F 85% 29.76 in 0.5 mi NNW 27.6 mph 36.8 mph 0.05 in Rain Light Freezing Rain
6:35 AM -4.0 °F -30.4 °F -7.6 °F 85% 29.77 in 0.5 mi North 27.6 mph 38.0 mph 0.10 in Rain Light Freezing Rain
6:55 AM -4.0 °F -28.6 °F -7.6 °F 85% 29.79 in 1.0 mi North 23.0 mph 38.0 mph 0.13 in Rain Light Freezing Rain
7:15 AM -4.0 °F -28.6 °F -7.6 °F 85% 29.79 in 1.0 mi North 23.0 mph 36.8 mph 0.01 in Rain Light Freezing Rain
7:35 AM -4.0 °F -29.1 °F -7.6 °F 85% 29.81 in 0.8 mi North 24.2 mph 32.2 mph 0.04 in Rain Light Freezing Rain
7:55 AM -2.2 °F -28.0 °F -7.6 °F 78% 29.81 in 0.8 mi North 27.6 mph 35.7 mph 0.08 in Rain Light Freezing Rain
8:15 AM -2.2 °F -29.2 °F -7.6 °F 78% 29.81 in 0.2 mi NNW 31.1 mph 35.7 mph 0.05 in Rain Light Freezing Rain
8:35 AM -2.2 °F -28.4 °F -7.6 °F 78% 29.81 in 0.2 mi NNW 28.8 mph 38.0 mph 0.13 in Rain Light Freezing Rain
8:55 AM -2.2 °F -27.1 °F -7.6 °F 78% 29.83 in 0.2 mi NNW 25.3 mph 38.0 mph 0.19 in Rain Light Freezing Rain
9:15 AM -4.0 °F -31.6 °F -7.6 °F 85% 29.84 in 0.2 mi North 31.1 mph 36.8 mph 0.03 in Rain Light Freezing Rain
9:35 AM -4.0 °F -31.3 °F -9.4 °F 78% 29.85 in 0.2 mi NNW 29.9 mph 33.4 mph 0.07 in Rain Light Freezing Rain
9:55 AM -4.0 °F -31.3 °F -9.4 °F 78% 29.87 in 0.2 mi NNW 29.9 mph - 0.10 in Rain Light Freezing Rain
10:15 AM -4.0 °F -32.0 °F -9.4 °F 78% 29.87 in 0.5 mi NNW 32.2 mph 38.0 mph 0.01 in Rain Light Freezing Rain
10:35 AM -4.0 °F -30.4 °F -9.4 °F 78% 29.88 in 0.5 mi NNW 27.6 mph 38.0 mph 0.03 in Rain Light Freezing Rain
10:55 AM -4.0 °F -29.1 °F -9.4 °F 78% 29.90 in 0.5 mi North 24.2 mph - 0.04 in Rain Light Freezing Rain
11:15 AM -4.0 °F -29.6 °F -9.4 °F 78% 29.92 in 1.0 mi NNW 25.3 mph 31.1 mph N/A   Haze
11:55 AM -4.0 °F -29.1 °F -9.4 °F 78% 29.92 in 3.0 mi NNW 24.2 mph - N/A   Haze
12:15 PM -2.2 °F -26.2 °F -7.6 °F 78% 29.93 in 2.5 mi NNW 23.0 mph - N/A   Haze
12:35 PM -2.2 °F -24.7 °F -7.6 °F 78% 29.93 in 3.0 mi NNW 19.6 mph - N/A   Haze
12:55 PM -2.2 °F -26.7 °F -7.6 °F 78% 29.94 in 3.0 mi NNW 24.2 mph 29.9 mph N/A   Haze
1:15 PM -2.2 °F -27.1 °F -7.6 °F 78% 29.94 in 7.0 mi NNW 25.3 mph - N/A   Clear
1:35 PM -2.2 °F -26.2 °F -7.6 °F 78% 29.95 in 3.0 mi NNW 23.0 mph 31.1 mph N/A   Haze
1:55 PM -0.4 °F -24.3 °F -7.6 °F 72% 29.96 in 8.0 mi NNW 24.2 mph 29.9 mph N/A   Clear
2:15 PM -0.4 °F -23.3 °F -7.6 °F 72% 29.97 in 5.0 mi NNW 21.9 mph - N/A   Haze
2:35 PM -0.4 °F -23.8 °F -7.6 °F 72% 29.98 in 7.0 mi NNW 23.0 mph - N/A   Clear
2:55 PM -0.4 °F -23.3 °F -7.6 °F 72% 29.99 in 10.0 mi NNW 21.9 mph - N/A   Clear
3:15 PM -2.2 °F -25.2 °F -7.6 °F 78% 30.00 in 9.0 mi NNW 20.7 mph - N/A   Clear
3:35 PM -2.2 °F -24.1 °F -7.6 °F 78% 30.02 in 10.0 mi NNW 18.4 mph 23.0 mph N/A   Clear
3:55 PM -2.2 °F -24.7 °F -7.6 °F 78% 30.03 in 10.0 mi NNW 19.6 mph - N/A   Clear
4:15 PM -2.2 °F -24.1 °F -7.6 °F 78% 30.03 in 10.0 mi NW 18.4 mph 25.3 mph N/A   Clear
4:35 PM -2.2 °F -22.9 °F -7.6 °F 78% 30.04 in 10.0 mi NNW 16.1 mph 23.0 mph N/A   Clear
4:55 PM -2.2 °F -22.9 °F -9.4 °F 71% 30.04 in 10.0 mi NW 16.1 mph - N/A   Clear
5:15 PM -4.0 °F -27.0 °F -9.4 °F 78% 30.04 in 10.0 mi NW 19.6 mph - N/A   Clear
5:35 PM -4.0 °F -25.8 °F -11.2 °F 71% 30.05 in 10.0 mi NW 17.3 mph - N/A   Clear
5:55 PM -5.8 °F -27.5 °F -11.2 °F 77% 30.06 in 10.0 mi NW 16.1 mph - N/A   Clear
6:15 PM -7.6 °F -29.1 °F -13.0 °F 77% 30.06 in 10.0 mi NW 15.0 mph - N/A   Clear
6:35 PM -7.6 °F -28.3 °F -13.0 °F 77% 30.06 in 10.0 mi NW 13.8 mph - N/A   Clear
7:15 PM -9.4 °F -29.8 °F -13.0 °F 84% 30.07 in 10.0 mi NW 12.7 mph - N/A   Clear
7:35 PM -9.4 °F -30.6 °F -14.8 °F 77% 30.07 in 10.0 mi NW 13.8 mph - N/A   Clear
7:55 PM -9.4 °F -29.8 °F -14.8 °F 77% 30.07 in 10.0 mi NW 12.7 mph - N/A   Clear
8:15 PM -11.2 °F -32.1 °F -16.6 °F 77% 30.07 in 10.0 mi NW 12.7 mph - N/A   Clear
8:35 PM -11.2 °F -29.0 °F -16.6 °F 77% 30.07 in 10.0 mi NW 9.2 mph - N/A   Clear
8:55 PM -11.2 °F -30.1 °F -16.6 °F 77% 30.07 in 10.0 mi NW 10.4 mph - N/A   Clear
9:15 PM -11.2 °F -31.1 °F -16.6 °F 77% 30.06 in 10.0 mi NW 11.5 mph - N/A   Clear
9:35 PM -9.4 °F -25.6 °F -16.6 °F 71% 30.06 in 10.0 mi NW 8.1 mph - N/A   Clear
9:55 PM -11.2 °F -27.8 °F -16.6 °F 77% 30.06 in 10.0 mi NNW 8.1 mph - N/A   Clear
10:15 PM -11.2 °F -29.0 °F -16.6 °F 77% 30.06 in 10.0 mi NW 9.2 mph - N/A   Clear
10:35 PM -9.4 °F -27.9 °F -16.6 °F 71% 30.06 in 10.0 mi NW 10.4 mph - N/A   Clear
10:55 PM -11.2 °F -31.1 °F -16.6 °F 77% 30.07 in 10.0 mi NW 11.5 mph - N/A   Clear
11:15 PM -11.2 °F -30.1 °F -16.6 °F 77% 30.07 in 10.0 mi NW 10.4 mph - N/A   Clear
11:35 PM -11.2 °F -24.8 °F -16.6 °F 77% 30.07 in 10.0 mi WNW 5.8 mph - N/A   Clear
11:55 PM -13.0 °F -27.0 °F -18.4 °F 77% 30.08 in 10.0 mi West 5.8 mph - N/A   Clear